Weather History for Mitchell, SD

Change the Weather History Date:

Friday, May 3, 2013

  Actual Average Record
Temperature  
Mean Temperature 38 °F 55 °F  
Max Temperature 55 °F 68 °F 92 °F (1918)
Min Temperature 20 °F 43 °F 18 °F (1967)
Degree Days  
Heating Degree Days 27 10  
Month to date heating degree days 70 31  
Since 1 July heating degree days 7434 7031  
Cooling Degree Days 0 0  
Month to date cooling degree days 0 0  
Year to date cooling degree days 0 2  
Moisture  
Dew Point 22 °F    
Average Humidity 58    
Maximum Humidity 92    
Minimum Humidity 24    
Precipitation  
Precipitation 0.00 in 0.09 in 1.42 in (1944)
Month to date precipitation T 0.27  
Year to date precipitation 5.03 4.07  
Snow  
Snow 0.00 in - T in (1954)
Month to date snowfall 0.0  
Since 1 July snowfall 54.5  
Snow Depth 0.00 in    
Sea Level Pressure  
Sea Level Pressure 30.34 in    
Wind  
Wind Speed 12 mph (NNE)    
Max Wind Speed 22 mph    
Max Gust Speed 30 mph    
Visibility 10 miles    
Events      
T = Trace of Precipitation, MM = Missing Value Source: NWS Daily Summary

Daily Weather History Graph

Daily Weather History Graph

Search for Another Location

Airport:

Trip Planner

Search our weather history database for the weather conditions in past years. The results will help you decide how hot, cold, wet, or windy it might be!

Date:

Astronomy

May. 03, 2013 Rise Set
Actual Time 6:21 AM CDT 8:37 PM CDT
Civil Twilight 5:49 AM CDT 9:09 PM CDT
Nautical Twilight 5:10 AM CDT 9:49 PM CDT
Astronomical Twilight 4:26 AM CDT 10:33 PM CDT
Moon 2:58 AM CDT (5/3) 2:22 PM CDT (5/3)
Length of Visible Light 15h 20m
Length of Day
14h 16m
Last Quarter, 37% of the Moon is Illuminated
May 3
Last Quarter
May 9
New
May 17
First Quarter
May 24
Full
May 31
Last Quarter

Hourly Weather History & Observations

Time (CDT) Temp. Windchill Dew Point Humidity Pressure Visibility Wind Dir Wind Speed Gust Speed Precip Events Conditions
12:53 AM 30.9 °F 25.2 °F 23.0 °F 72% 30.49 in 10.0 mi ENE 5.8 mph - N/A   Clear
1:53 AM 30.9 °F 24.3 °F 24.1 °F 76% 30.49 in 10.0 mi NE 6.9 mph - N/A   Clear
2:53 AM 28.9 °F 22.8 °F 23.0 °F 78% 30.48 in 10.0 mi NE 5.8 mph - N/A   Clear
3:53 AM 27.0 °F 21.6 °F 23.0 °F 85% 30.47 in 10.0 mi North 4.6 mph - N/A   Clear
4:53 AM 25.0 °F 18.1 °F 21.0 °F 85% 30.46 in 10.0 mi North 5.8 mph - N/A   Clear
5:53 AM 21.9 °F 13.4 °F 19.0 °F 89% 30.46 in 10.0 mi NW 6.9 mph - N/A   Clear
6:53 AM 21.9 °F 14.5 °F 19.9 °F 92% 30.46 in 10.0 mi NNW 5.8 mph - N/A   Clear
7:53 AM 28.9 °F 19.8 °F 25.0 °F 85% 30.46 in 10.0 mi North 10.4 mph - N/A   Clear
9:53 AM 37.0 °F 31.0 °F 24.1 °F 59% 30.41 in 10.0 mi North 8.1 mph - N/A   Clear
10:53 AM 39.9 °F 32.1 °F 21.9 °F 49% 30.39 in 10.0 mi North 13.8 mph 18.4 mph N/A   Clear
11:53 AM 44.1 °F 37.1 °F 21.9 °F 42% 30.37 in 10.0 mi NNE 15.0 mph 19.6 mph N/A   Clear
12:53 PM 48.0 °F - 21.9 °F 36% 30.32 in 10.0 mi North 13.8 mph 23.0 mph N/A   Clear
1:53 PM 51.1 °F - 21.9 °F 32% 30.28 in 10.0 mi North 18.4 mph 27.6 mph N/A   Clear
2:53 PM 52.0 °F - 21.0 °F 30% 30.26 in 10.0 mi NE 20.7 mph 26.5 mph N/A   Clear
3:53 PM 54.0 °F - 19.0 °F 25% 30.24 in 10.0 mi North 20.7 mph 25.3 mph N/A   Clear
4:53 PM 54.0 °F - 18.0 °F 24% 30.22 in 10.0 mi North 19.6 mph 23.0 mph N/A   Clear
5:53 PM 54.0 °F - 17.1 °F 23% 30.21 in 10.0 mi NNE 19.6 mph 27.6 mph N/A   Clear
6:53 PM 53.1 °F - 19.9 °F 27% 30.21 in 10.0 mi NNE 19.6 mph - N/A   Clear
7:53 PM 51.1 °F - 21.0 °F 31% 30.20 in 10.0 mi North 18.4 mph 23.0 mph N/A   Clear
8:53 PM 46.0 °F 41.0 °F 21.9 °F 39% 30.21 in 10.0 mi NNE 10.4 mph - N/A   Clear
9:53 PM 42.1 °F 36.1 °F 25.0 °F 51% 30.22 in 10.0 mi North 10.4 mph - N/A   Clear
10:53 PM 43.0 °F 36.8 °F 25.0 °F 49% 30.22 in 10.0 mi North 11.5 mph - N/A   Clear
11:53 PM 39.0 °F 32.8 °F 26.1 °F 60% 30.21 in 10.0 mi North 9.2 mph - N/A   Clear